182P/LONEOS (2007)

Japanese version
Home page
Total 6,336 html files since Dec. 4, 1995
Updated on September 21, 2007

---------------------------------------------------------------------

* Profile

Designation 182P/2006 W2
Recovery Date November 18, 2006
Magnitude 19.6 mag
Recoverer E. J. Christensen (Lunar and Planetary Laboratory)

* Orbital Elements

The following orbital elements are taken from MPC 58120:

Epoch 2007 Jan. 20.0 TT = JDT 2454120.5
T 2007 Feb. 6.1422 TT                                   MPC
q   0.979669             (2000.0)            P               Q
n   0.1962693      Peri.   51.4476      -0.5622861      -0.7777513
a   2.932476       Node    75.0606      +0.6389963      -0.6243022
e   0.665924       Incl.   16.9051      +0.5248982      -0.0731416
P   5.02
From 132 observations 2001-2006, mean residual 0".5.

* Magnitudes Graph

        H = 19.0  G = 0.15

---------------------------------------------------------------------

The orbital elements are published at the MPC Ephemerides and Orbital Elements.
The magnitudes graphs are made with Comet for Windows.

---------------------------------------------------------------------

Copyright(C) 1995-2008 Seiichi Yoshida (comet@aerith.net). All rights reserved.